Location: Albany
(35.0170°S, 117.8920°E)
Time: 03:27:59
(UTC+08:00)

Vanguard 1 - Pass Details

Date: 25 January 2021
Orbit: 649 x 3833 km, 34.2° (Epoch: 26 February)

Event Time Altitude Azimuth Distance (km) Brightness Sun altitude
Rises 21:35:59 0° 342° (NNW) 5,882 13.8 -23.5°
Enters shadow 21:38:54 - 349° (N) 5,122 13.4 -23.9°
Reaches altitude 10° 21:43:47 10° 8° (N) 3,983 - -24.5°
Maximum altitude 21:46:50 12° 27° (NNE) 3,485 - -24.9°
Drops below altitude 10° 21:49:28 10° 45° (NE) 3,307 - -25.3°
Sets 21:54:11 0° 77° (ENE) 3,731 - -25.9°
